, AK

(GMT )
Anchorage

Weather History for PANC - January, 2013

Change the Weather History Date:

Tuesday, January 1, 2013

  Actual Average Record
Temperature  
Mean Temperature 38 °F 18 °F  
Max Temperature 43 °F 24 °F 48 °F (1985)
Min Temperature 33 °F 12 °F -17 °F (1980)
Degree Days  
Heating Degree Days 27    
Month to date heating degree days 27  
Since 1 July heating degree days 5026  
Cooling Degree Days 0    
Month to date cooling degree days 0  
Year to date cooling degree days 0  
Moisture  
Dew Point 28 °F    
Average Humidity 74    
Maximum Humidity 89    
Minimum Humidity 59    
Precipitation  
Precipitation T in 0.03 in 0.44 in (1967)
Month to date precipitation T 0.03  
Year to date precipitation T 0.03  
Snow  
Snow T in 0.40 in 4.60 in (1964)
Month to date snowfall T 0.4  
Since 1 July snowfall 24.9 38.5  
Snow Depth 9.00 in    
Sea Level Pressure  
Sea Level Pressure 29.34 in    
Wind  
Wind Speed 7 mph (South)    
Max Wind Speed 15 mph    
Max Gust Speed 22 mph    
Visibility 10 miles    
Events Rain , Snow    
T = Trace of Precipitation, MM = Missing Value Source: NWS Daily Summary

Daily Weather History Graph

Daily Weather History Graph

Search for Another Location

Airport or City:

Trip Planner

Search our weather history database for the weather conditions in past years. The results will help you decide how hot, cold, wet, or windy it might be!

Date:

Astronomy

Jan. 01, 2013 Rise Set
Actual Time 10:13 AM AKST 3:54 PM AKST
Civil Twilight 9:12 AM AKST 4:55 PM AKST
Nautical Twilight 8:13 AM AKST 5:54 PM AKST
Astronomical Twilight 7:20 AM AKST 6:47 PM AKST
Moon 10:10 PM AKST (1/1) 11:04 AM AKST (1/1)
Length of Visible Light 7h 42m
Length of Day
5h 41m
Waning Gibbous, 82% of the Moon is Illuminated
Jan 1
Waning Gibbous
Jan 4
Last Quarter
Jan 11
New
Jan 18
First Quarter
Jan 26
Full

Hourly Weather History & Observations

Time (AKST) Temp. Windchill Dew Point Humidity Pressure Visibility Wind Dir Wind Speed Gust Speed Precip Events Conditions
12:24 AM 33.8 °F 24.8 °F 28.4 °F 81% 29.55 in 9.0 mi West 12.7 mph - 0.00 in Rain , Snow Light Rain
12:53 AM 34.0 °F 25.5 °F 28.0 °F 79% 29.55 in 9.0 mi West 11.5 mph - 0.00 in Snow Light Snow
1:53 AM 33.1 °F 21.9 °F 26.1 °F 75% 29.52 in 10.0 mi WNW 18.4 mph - 0.00 in   Overcast
3:53 AM 32.0 °F 28.7 °F 26.1 °F 79% 29.47 in 10.0 mi Variable 3.5 mph - N/A   Overcast
4:53 AM 33.1 °F 23.9 °F 25.0 °F 72% 29.46 in 10.0 mi West 12.7 mph - N/A   Overcast
5:53 AM 34.0 °F - 28.0 °F 79% 29.43 in 10.0 mi Calm Calm - N/A   Overcast
6:53 AM 34.0 °F - 26.1 °F 73% 29.41 in 10.0 mi Calm Calm - N/A   Overcast
7:53 AM 35.1 °F 29.3 °F 27.0 °F 72% 29.39 in 10.0 mi NNW 6.9 mph - N/A   Overcast
8:53 AM 34.0 °F 28.0 °F 27.0 °F 75% 29.38 in 10.0 mi SW 6.9 mph 16.1 mph N/A   Mostly Cloudy
9:53 AM 34.0 °F 29.8 °F 28.0 °F 79% 29.38 in 10.0 mi Variable 4.6 mph - N/A   Mostly Cloudy
10:53 AM 34.0 °F 28.0 °F 28.0 °F 79% 29.37 in 10.0 mi WNW 6.9 mph - N/A   Mostly Cloudy
11:53 AM 34.0 °F - 28.9 °F 82% 29.34 in 10.0 mi Calm Calm - N/A   Mostly Cloudy
12:53 PM 33.1 °F 30.0 °F 28.0 °F 82% 29.30 in 10.0 mi WSW 3.5 mph - N/A   Overcast
1:53 PM 34.0 °F 31.0 °F 30.0 °F 85% 29.27 in 10.0 mi SW 3.5 mph - N/A   Overcast
2:53 PM 37.0 °F 29.3 °F 30.0 °F 76% 29.25 in 10.0 mi SSE 11.5 mph - N/A   Overcast
3:53 PM 36.0 °F 29.0 °F 30.0 °F 79% 29.23 in 10.0 mi SE 9.2 mph 20.7 mph N/A   Mostly Cloudy
4:53 PM 33.1 °F 28.7 °F 30.0 °F 89% 29.22 in 10.0 mi ESE 4.6 mph - N/A   Mostly Cloudy
5:53 PM 35.1 °F 27.4 °F 28.9 °F 78% 29.21 in 10.0 mi NE 10.4 mph - N/A   Overcast
6:53 PM 34.0 °F 29.8 °F 28.9 °F 82% 29.21 in 10.0 mi ENE 4.6 mph - N/A   Overcast
7:53 PM 35.1 °F 27.4 °F 28.9 °F 78% 29.20 in 10.0 mi ESE 10.4 mph - N/A   Overcast
8:53 PM 37.0 °F 28.1 °F 28.0 °F 70% 29.20 in 10.0 mi SE 15.0 mph 20.7 mph N/A   Overcast
9:53 PM 37.0 °F 29.8 °F 27.0 °F 67% 29.23 in 10.0 mi SE 10.4 mph - N/A   Mostly Cloudy
10:53 PM 39.0 °F 31.0 °F 26.1 °F 60% 29.24 in 10.0 mi SSE 13.8 mph 21.9 mph N/A   Overcast
11:53 PM 37.9 °F 30.0 °F 28.0 °F 68% 29.25 in 10.0 mi SE 12.7 mph 28.8 mph N/A   Overcast